CW7409 Weather Reports


time (UTC)temp
C
wind
direction
speed
KPH
gust
KPH
rain 1hr
cm
rain 24hr
cm
rain mn
cm
humidity
%
barometer
mb
20260906184918 29 31 9.7 16.1 0.00 0.00 0.00 64 1010.3
20260906180918 27 34 11.3 14.5 0.00 0.00 0.00 71 1010.1
20260906174916 26 62 1.6 8.0 0.00 0.00 0.00 76 1010.8
20260906161917 26 75 1.6 4.8 0.00 0.00 0.00 77 1011.5
20260906160916 26 0 3.2 8.0 0.00 0.00 0.00 78 1011.4
20260906154917 26 297 4.8 9.7 0.00 0.00 0.00 79 1011.6
20260906144916 25 349 8.0 16.1 0.00 0.00 0.00 79 1011.2
20260906141916 24 280 11.3 16.1 0.00 0.00 0.00 84 1011.3
20260906134917 23 255 3.2 8.0 0.00 0.00 0.00 88 1011.3
20260906133916 23 256 3.2 9.7 0.00 0.00 0.00 89 1011.3
20260906131916 23 295 8.0 11.3 0.00 0.00 0.00 90 1011.3
20260906124917 22 162 3.2 4.8 0.00 0.00 0.00 91 1010.3
20260906123917 22 154 3.2 4.8 0.00 0.00 0.00 91 1010.2
20260906121916 22 163 3.2 4.8 0.00 0.00 0.00 91 1010.0
20260906114917 22 129 4.8 4.8 0.00 0.00 0.00 90 1009.6
20260906113917 22 144 4.8 8.0 0.00 0.00 0.00 90 1009.6
20260906111920 22 139 3.2 8.0 0.00 0.00 0.00 90 1009.4
20260906110917 22 153 4.8 9.7 0.00 0.00 0.00 90 1009.2
20260906104917 22 129 4.8 8.0 0.00 0.00 0.00 89 1009.2
20260906101917 22 134 4.8 8.0 0.00 0.00 0.00 88 1009.4
20260906100917 22 135 4.8 8.0 0.00 0.00 0.00 88 1009.3
20260906094917 22 110 4.8 8.0 0.00 0.00 0.00 89 1009.2
20260906083916 23 136 0.0 4.8 0.00 0.00 0.00 87 1009.3
20260906081916 23 101 4.8 4.8 0.00 0.00 0.00 87 1009.4
20260906074917 23 109 4.8 8.0 0.00 0.00 0.00 87 1009.1
20260906073918 23 124 4.8 8.0 0.00 0.00 0.00 86 1009.2
20260906070917 23 143 4.8 9.7 0.00 0.00 0.00 86 1009.0
20260906061917 23 125 4.8 9.7 0.00 0.00 0.00 85 1009.2
20260906053916 24 148 4.8 8.0 0.00 0.00 0.00 85 1009.3
20260906050916 24 112 4.8 8.0 0.00 0.00 0.00 85 1009.0
20260906044917 25 117 4.8 4.8 0.00 0.00 0.00 84 1009.1
20260906043916 25 124 4.8 4.8 0.00 0.00 0.00 83 1009.2
20260906041917 25 113 4.8 4.8 0.00 0.00 0.00 83 1009.2
20260906040917 25 115 4.8 8.0 0.00 0.00 0.00 83 1009.3
20260906033917 25 110 4.8 4.8 0.00 0.00 0.00 82 1009.0
20260906024916 26 123 3.2 4.8 0.00 0.00 0.00 79 1008.4
20260906020917 27 112 3.2 4.8 0.00 0.00 0.00 76 1007.7
20260906014916 27 128 3.2 4.8 0.00 0.00 0.00 75 1007.4
20260906010917 29 120 3.2 8.0 0.00 0.00 0.00 68 1007.0
20260906003916 31 154 4.8 8.0 0.00 0.00 0.00 63 1007.0
20260906000917 31 148 8.0 9.7 0.00 0.00 0.00 60 1007.1
20260905234917 33 162 8.0 12.9 0.00 0.00 0.00 57 1007.1
20260905233917 33 138 8.0 14.5 0.00 0.00 0.00 55 1007.0
20260905214917 33 150 6.4 22.5 0.00 0.00 0.00 51 1006.9
20260905213916 34 180 17.7 29.0 0.00 0.00 0.00 51 1007.0
20260905204917 33 134 16.1 24.1 0.00 0.00 0.00 58 1007.7
20260905200917 33 88 16.1 24.1 0.00 0.00 0.00 60 1008.5